Weather History for KCQX - January, 2013

Change the Weather History Date:

Friday, January 11, 2013

  Actual Average Record
Temperature  
Mean Temperature 35 °F -  
Max Temperature 42 °F 36 °F 55 °F (2014)
Min Temperature 28 °F 23 °F 2 °F (1981)
Degree Days  
Heating Degree Days 30    
Moisture  
Dew Point 31 °F    
Average Humidity 76    
Maximum Humidity 89    
Minimum Humidity 65    
Precipitation  
Precipitation 0.06 in - - ()
Sea Level Pressure  
Sea Level Pressure 30.41 in    
Wind  
Wind Speed 2 mph (SE)    
Max Wind Speed 7 mph    
Max Gust Speed -    
Visibility 10 miles    
Events Rain    
Averages and records for this station are not official NWS values.
T = Trace of Precipitation, MM = Missing Value Source: NWS Daily Summary

Daily Weather History Graph

Daily Weather History Graph

Search for Another Location

Airport or City:

Trip Planner

Search our weather history database for the weather conditions in past years. The results will help you decide how hot, cold, wet, or windy it might be!

Date:

Astronomy

Jan. 11, 2013 Rise Set
Actual Time 7:06 AM EST 4:30 PM EST
Civil Twilight 6:35 AM EST 5:01 PM EST
Nautical Twilight 6:00 AM EST 5:35 PM EST
Astronomical Twilight 5:27 AM EST 6:09 PM EST
Moon 6:35 AM EST (1/11) 4:45 PM EST (1/11)
Length of Visible Light 10h 26m
Length of Day
9h 24m
Waning Crescent, 0% of the Moon is Illuminated
Jan 11
Waning Crescent
Jan 11
New
Jan 18
First Quarter
Jan 26
Full
Feb 3
Last Quarter

Hourly Weather History & Observations

Time (EST) Temp. Windchill Dew Point Humidity Pressure Visibility Wind Dir Wind Speed Gust Speed Precip Events Conditions
12:52 AM 37.9 °F 35.5 °F 28.9 °F 70% 30.50 in 10.0 mi Variable 3.5 mph - N/A   Clear
1:52 AM 34.0 °F - 28.0 °F 79% 30.50 in 10.0 mi Calm Calm - N/A   Clear
2:52 AM 33.1 °F - 28.0 °F 82% 30.49 in 10.0 mi Calm Calm - N/A   Clear
3:52 AM 32.0 °F - 27.0 °F 82% 30.48 in 10.0 mi Calm Calm - N/A   Clear
4:52 AM 28.9 °F - 24.1 °F 82% 30.47 in 10.0 mi Calm Calm - N/A   Clear
5:52 AM 30.0 °F - 27.0 °F 88% 30.48 in 10.0 mi Calm Calm - N/A   Clear
7:52 AM 33.1 °F - 28.0 °F 82% 30.51 in 8.0 mi Calm Calm - N/A   Clear
8:52 AM 37.9 °F - 30.0 °F 73% 30.51 in 10.0 mi Calm Calm - N/A   Clear
9:52 AM 42.1 °F 38.4 °F 30.9 °F 65% 30.49 in 10.0 mi NE 5.8 mph - N/A   Clear
10:52 AM 42.1 °F 37.7 °F 30.9 °F 65% 30.47 in 10.0 mi ENE 6.9 mph - N/A   Clear
11:52 AM 42.1 °F 38.4 °F 30.9 °F 65% 30.43 in 10.0 mi ENE 5.8 mph - N/A   Clear
12:52 PM 42.1 °F 40.2 °F 30.9 °F 65% 30.40 in 10.0 mi East 3.5 mph - N/A   Clear
1:52 PM 42.1 °F 40.2 °F 30.9 °F 65% 30.40 in 10.0 mi East 3.5 mph - N/A   Clear
2:52 PM 42.1 °F - 32.0 °F 67% 30.37 in 10.0 mi Calm Calm - N/A   Clear
3:52 PM 41.0 °F 39.0 °F 32.0 °F 70% 30.38 in 10.0 mi WSW 3.5 mph - N/A   Scattered Clouds
4:52 PM 39.9 °F - 32.0 °F 73% 30.36 in 10.0 mi Calm Calm - N/A   Clear
5:52 PM 39.0 °F - 32.0 °F 76% 30.35 in 10.0 mi Calm Calm - N/A   Scattered Clouds
6:52 PM 41.0 °F 39.0 °F 34.0 °F 76% 30.33 in 10.0 mi South 3.5 mph - N/A   Overcast
7:52 PM 41.0 °F 38.0 °F 35.1 °F 79% 30.31 in 10.0 mi South 4.6 mph - 0.00 in   Overcast
8:52 PM 41.0 °F 38.0 °F 35.1 °F 79% 30.30 in 10.0 mi South 4.6 mph - N/A   Overcast
9:52 PM 41.0 °F 39.0 °F 36.0 °F 82% 30.29 in 10.0 mi ESE 3.5 mph - 0.00 in Rain Light Rain
10:52 PM 39.9 °F 36.7 °F 37.0 °F 89% 30.28 in 10.0 mi SSE 4.6 mph - 0.02 in Rain Light Rain
11:52 PM 39.9 °F 37.8 °F 36.0 °F 86% 30.25 in 10.0 mi SE 3.5 mph - 0.04 in Rain Light Rain